User: anonymous   Login
Location: Owatonna
(44.0840°N, 93.2260°W)
Time: 10:51:58
(UTC-06:00)
Language:

ALOS - Orbit

View from above orbital plane
View from above orbital plane
View from above satellite
View from above satellite

Ground track
Ground track

The orbit data is extracted from the following two-line orbital elements,

1 28931U 06002A   17057.56395106  .00000336  00000-0  75248-4 0  9998
2 28931  97.8562  90.3904 0001004  50.3133 309.8157 14.62317071591298
Epoch (UTC): 26 February 2017 13:32:05
Eccentricity: 0.0001004
inclination: 97.8562°
perigee height: 685 km
apogee height: 686 km
right ascension of ascending node: 90.3904°
argument of perigee: 50.3133°
revolutions per day: 14.62317071
mean anomaly at epoch: 309.8157°
orbit number at epoch: 59129

The dashed part of the orbit path shows where the satellite is in the earth's shadow,  

DLR